Location: Cabri�res
(43.7840°N, 5.4986°E)
Time: 13:55:05
(UTC+00:00)

SAR-Lupe-2 - Visible Passes

Search period start: 06 August 2020 00:00
Search period end: 16 August 2020 00:00
Orbit: 481 x 485 km, 98.1° (Epoch: 02 August)

Date Brightness Start Highest point End Pass type
(mag) Time Alt. Az. Time Alt. Az. Time Alt. Az.
06 Aug 3.8 20:54:39 10° NNE 20:58:00 48° E 20:58:00 48° E visible
06 Aug 6.5 22:29:33 10° NW 22:31:04 12° WNW 22:32:19 11° W visible
07 Aug 4.9 20:30:18 10° NE 20:32:48 23° E 20:32:48 23° E visible
07 Aug 5.7 22:03:38 10° NNW 22:06:29 23° WNW 22:07:08 21° W visible
08 Aug 5.7 20:06:48 10° ENE 20:07:36 12° E 20:07:36 12° E visible
08 Aug 4.5 21:38:23 10° N 21:41:49 44° WNW 21:41:55 44° WNW visible
09 Aug 3.6 21:13:28 10° NNE 21:16:43 71° NNE 21:16:43 71° NNE visible
10 Aug 4.4 20:48:50 10° NNE 20:51:31 34° ENE 20:51:31 34° ENE visible
10 Aug 6.3 22:23:11 10° NNW 22:25:14 15° WNW 22:25:50 14° WNW visible
11 Aug 5.4 20:24:38 10° NE 20:26:19 17° ENE 20:26:19 17° ENE visible
11 Aug 5.4 21:57:33 10° N 22:00:37 27° WNW 22:00:37 27° WNW visible
12 Aug 4.4 21:32:25 10° N 21:35:25 50° NW 21:35:25 50° NW visible
13 Aug 4.3 21:07:35 10° NNE 21:10:12 44° NE 21:10:12 44° NE visible
14 Aug 5.1 20:43:03 10° NE 20:44:59 24° ENE 20:44:59 24° ENE visible
14 Aug 6.1 22:16:56 10° NNW 22:19:18 18° WNW 22:19:18 18° WNW visible
15 Aug 5.8 20:19:03 10° NE 20:19:46 13° ENE 20:19:46 13° ENE visible
15 Aug 5.4 21:51:30 10° N 21:54:05 31° NW 21:54:05 31° NW visible
